Skip Page Navigation
NASA JPL Caltech
NASA Logo - Jet Propulsion Laboratory + View the NASA Portal
+ Near-Earth Object (NEO) Program
Search JPL
JPL Home Earth Solar System Stars & Galaxies Technology
JPL Solar System Dynamics
BODIES ORBITS EPHEMERIDES TOOLS PHYSICAL DATA DISCOVERY FAQ SITE MAP
JPL Small-Body Database Browser
Search: [ help ]  
134244 De Young (2006 AA4)
Classification: Main-belt Asteroid          SPK-ID: 2134244
Ephemeris | Orbit Diagram | Orbital Elements | Physical Parameters | Discovery Circumstances ]

[ hide orbit diagram ]
Orbit Diagram
Note: Make sure you have Java enabled on your browser to see the applet. This applet is provided as a 3D orbit visualization tool. The applet was implemented using 2-body methods, and hence should not be used for determining accurate long-term trajectories (over several years or decades) or planetary encounter circumstances. For accurate long-term ephemerides, please instead use our Horizons system.
Orbit Viewer

Additional Notes: the orbits shown in the applet are color coded. The planets are white lines, and the asteroid/comet is a blue line. The bright white line indicates the portion of the orbit that is above the ecliptic plane, and the darker portion is below the ecliptic plane. Likewise for the asteroid/comet orbit, the light blue indicates the portion above the ecliptic plane, and the dark blue the portion below the ecliptic plane.

Orbit Viewer applet originally written and kindly provided by Osamu Ajiki (AstroArts), and further modified by Ron Baalke (JPL).


Orbital Elements at Epoch 2456400.5 (2013-Apr-18.0) TDB
Reference: MPO241066 (heliocentric ecliptic J2000)
 Element Value Uncertainty (1-sigma)   Units 
e 0.1850627 n/a  
a 2.7247786 n/a AU
q 2.2205237 n/a AU
i 7.66300 n/a deg
node 297.85612 n/a deg
peri 289.81305 n/a deg
M 159.51851 n/a deg
tp 2455672.5461704
(2011-Apr-21.04617040)
n/a JED
period 1642.8399354
4.50
n/a
n/a
d
yr
n 0.21913273 n/a deg/d
Q 3.2290335 n/a AU
  Orbit Determination Parameters
   # obs. used (total)      109  
   first obs. used      1997-??-??  
   last obs. used      2012-10-08  
   # oppositions      8  
   planetary ephem.      DE403  
   condition code      0  
   fit RMS      0.56  
   data source      MPC:mpu  
   producer      MPCLINUX  

Additional Information
 T_jup = 3.319 

Ephemeris | Orbit Diagram | Orbital Elements | Physical Parameters | Discovery Circumstances ]

Physical Parameter Table
Parameter Symbol Value Units Sigma Reference Notes
absolute magnitude H 15.9 mag n/a MPO241066  

134244 De Young           Discovered 2006 Jan. 6 by L. A. Molnar at the Calvin-Rehoboth Observatory.
Mike De Young (b. 1954) has taught at the Rehoboth Christian School since 1977. He was selected in 1995 by the National Association of Geology Teachers as one of the nations 24 outstanding earth science teachers. He runs the school observatory and is the local liaison for the Calvin-Rehoboth Robotic Observatory.
NOTE: some special characters may not display properly (any characters within {} are an attempt to place the proper accent above a character)
Reference: 20070402/MPCPages.arcLast Updated: 2007-07-05

Alternate Designations
 2006 AA4 = 1997 EF31 
Ephemeris | Orbit Diagram | Orbital Elements | Physical Parameters | Discovery Circumstances ]
ABOUT SSD CREDITS/AWARDS PRIVACY/COPYRIGHT GLOSSARY LINKS
FirstGov 2013-May-26 08:13 UT
(server date/time)  
NASA Home Page
Site Manager:   Donald K. Yeomans
Webmaster  Alan B. Chamberlin